Météo par heure à Junoszyno

Ce jour, 20 Juin, Dimanche

Heure Température Précipitation Vent Pression Humidité
00:00 +22°C° 0 mm 3 m/s 760 mmHg 79%
01:00 +21°C° 0 mm 3 m/s 760 mmHg 83%
02:00 +21°C° 0 mm 3 m/s 760 mmHg 84%
03:00 +21°C° 0 mm 3 m/s 760 mmHg 84%
04:00 +21°C° 0 mm 3 m/s 760 mmHg 85%
05:00 +22°C° 0 mm 4 m/s 760 mmHg 82%
06:00 +23°C° 0 mm 4 m/s 760 mmHg 79%
07:00 +26°C° 0 mm 4 m/s 760 mmHg 76%
08:00 +27°C° 0 mm 5 m/s 760 mmHg 71%
09:00 +28°C° 0 mm 5 m/s 760 mmHg 65%
10:00 +29°C° 0 mm 5 m/s 760 mmHg 59%
11:00 +29°C° 0 mm 5 m/s 760 mmHg 56%
12:00 +30°C° 0 mm 5 m/s 759 mmHg 52%
13:00 +30°C° 0 mm 5 m/s 759 mmHg 49%
14:00 +30°C° 0 mm 5 m/s 759 mmHg 51%
15:00 +30°C° 0 mm 5 m/s 759 mmHg 53%
16:00 +30°C° 0 mm 4 m/s 758 mmHg 55%
17:00 +29°C° 0 mm 4 m/s 758 mmHg 61%
18:00 +28°C° 0 mm 4 m/s 758 mmHg 67%
19:00 +26°C° 0 mm 3 m/s 758 mmHg 73%
20:00 +25°C° 0 mm 4 m/s 758 mmHg 75%
21:00 +23°C° 0 mm 4 m/s 758 mmHg 76%
22:00 +22°C° 0 mm 4 m/s 758 mmHg 78%
23:00 +22°C° 0 mm 4 m/s 758 mmHg 81%

Demain, 21 Juin, Lundi

Heure Température Précipitation Vent Pression Humidité
00:00 +21°C° 0 mm 4 m/s 758 mmHg 84%
01:00 +21°C° 0 mm 3 m/s 758 mmHg 87%
02:00 +21°C° 0 mm 3 m/s 757 mmHg 89%
03:00 +20°C° 0 mm 3 m/s 757 mmHg 91%
04:00 +20°C° 0 mm 3 m/s 757 mmHg 93%
05:00 +22°C° 0 mm 3 m/s 757 mmHg 87%
06:00 +23°C° 0 mm 4 m/s 757 mmHg 81%
07:00 +26°C° 0 mm 5 m/s 757 mmHg 76%
08:00 +27°C° 0 mm 5 m/s 757 mmHg 70%
09:00 +28°C° 0 mm 5 m/s 757 mmHg 63%
10:00 +29°C° 0 mm 5 m/s 757 mmHg 57%
11:00 +30°C° 0 mm 5 m/s 757 mmHg 55%
12:00 +30°C° 0 mm 5 m/s 757 mmHg 53%
13:00 +32°C° 0 mm 5 m/s 756 mmHg 50%
14:00 +32°C° 0 mm 5 m/s 756 mmHg 52%
15:00 +30°C° 0 mm 5 m/s 756 mmHg 54%
16:00 +30°C° 0 mm 4 m/s 755 mmHg 55%
17:00 +29°C° 0 mm 4 m/s 755 mmHg 60%
18:00 +28°C° 0 mm 3 m/s 755 mmHg 65%
19:00 +27°C° 0 mm 3 m/s 755 mmHg 70%
20:00 +26°C° 0 mm 3 m/s 755 mmHg 72%
21:00 +25°C° 0 mm 3 m/s 755 mmHg 74%
22:00 +24°C° 0 mm 3 m/s 756 mmHg 75%
23:00 +24°C° 0 mm 3 m/s 755 mmHg 77%

Après-demain, 22 Juin, Mardi

Heure Température Précipitation Vent Pression Humidité
00:00 +23°C° 0 mm 2 m/s 755 mmHg 79%
01:00 +23°C° 0 mm 2 m/s 755 mmHg 80%
02:00 +23°C° 0.1 mm 2 m/s 755 mmHg 84%
03:00 +21°C° 0.1 mm 2 m/s 756 mmHg 87%
04:00 +21°C° 0.1 mm 3 m/s 756 mmHg 91%
05:00 +20°C° 0.2 mm 3 m/s 756 mmHg 91%
06:00 +20°C° 0.2 mm 4 m/s 757 mmHg 90%
07:00 +20°C° 0.2 mm 4 m/s 757 mmHg 90%
08:00 +21°C° 0.3 mm 3 m/s 757 mmHg 87%
09:00 +21°C° 0.3 mm 3 m/s 758 mmHg 84%
10:00 +21°C° 0.3 mm 3 m/s 758 mmHg 81%
11:00 +22°C° 0 mm 3 m/s 758 mmHg 77%
12:00 +23°C° 0 mm 4 m/s 759 mmHg 72%
13:00 +25°C° 0 mm 4 m/s 759 mmHg 68%
14:00 +23°C° 0 mm 5 m/s 759 mmHg 68%
15:00 +22°C° 0 mm 5 m/s 759 mmHg 68%
16:00 +22°C° 0 mm 5 m/s 760 mmHg 68%
17:00 +20°C° 0 mm 4 m/s 760 mmHg 71%
18:00 +19°C° 0 mm 4 m/s 760 mmHg 74%
19:00 +18°C° 0 mm 4 m/s 761 mmHg 77%
20:00 +17°C° 0 mm 3 m/s 761 mmHg 79%
21:00 +16°C° 0 mm 3 m/s 761 mmHg 82%
22:00 +15°C° 0 mm 2 m/s 761 mmHg 84%
23:00 +15°C° 0 mm 2 m/s 761 mmHg 83%

23 Juin, Mercredi

Heure Température Précipitation Vent Pression Humidité
00:00 +14°C° 0 mm 2 m/s 761 mmHg 81%
01:00 +14°C° 0 mm 1 m/s 761 mmHg 80%
02:00 +14°C° 0 mm 1 m/s 761 mmHg 78%
03:00 +14°C° 0 mm 1 m/s 761 mmHg 76%
04:00 +14°C° 0 mm 1 m/s 761 mmHg 74%
05:00 +16°C° 0 mm 1 m/s 761 mmHg 68%
06:00 +19°C° 0 mm 1 m/s 761 mmHg 62%
07:00 +20°C° 0 mm 1 m/s 761 mmHg 56%
08:00 +22°C° 0 mm 1 m/s 761 mmHg 54%
09:00 +23°C° 0 mm 2 m/s 761 mmHg 52%
10:00 +24°C° 0 mm 2 m/s 761 mmHg 50%
11:00 +25°C° 0 mm 3 m/s 761 mmHg 51%
12:00 +25°C° 0 mm 3 m/s 761 mmHg 52%
13:00 +26°C° 0 mm 3 m/s 761 mmHg 52%
14:00 +25°C° 0.1 mm 3 m/s 761 mmHg 55%
15:00 +23°C° 0.1 mm 4 m/s 761 mmHg 58%
16:00 +22°C° 0.1 mm 4 m/s 761 mmHg 61%
17:00 +21°C° 1 mm 4 m/s 761 mmHg 68%
18:00 +20°C° 1 mm 3 m/s 761 mmHg 75%
19:00 +19°C° 1 mm 3 m/s 761 mmHg 82%
20:00 +19°C° 1 mm 2 m/s 761 mmHg 85%
21:00 +18°C° 1 mm 2 m/s 761 mmHg 88%
22:00 +18°C° 1 mm 1 m/s 761 mmHg 91%
23:00 +18°C° 0 mm 1 m/s 761 mmHg 92%

24 Juin, Jeudi

Heure Température Précipitation Vent Pression Humidité
00:00 +18°C° 0 mm 1 m/s 761 mmHg 93%
01:00 +18°C° 0 mm 1 m/s 761 mmHg 93%
02:00 +16°C° 0 mm 2 m/s 761 mmHg 94%
03:00 +16°C° 0 mm 2 m/s 761 mmHg 95%
04:00 +16°C° 0 mm 3 m/s 761 mmHg 96%
05:00 +17°C° 0 mm 3 m/s 761 mmHg 93%
06:00 +18°C° 0 mm 4 m/s 762 mmHg 89%
07:00 +19°C° 0 mm 4 m/s 762 mmHg 86%
08:00 +20°C° 0 mm 4 m/s 762 mmHg 80%
09:00 +21°C° 0 mm 4 m/s 762 mmHg 75%
10:00 +22°C° 0 mm 4 m/s 763 mmHg 70%
11:00 +24°C° 0 mm 3 m/s 763 mmHg 66%
12:00 +25°C° 0 mm 3 m/s 763 mmHg 62%
13:00 +26°C° 0 mm 2 m/s 762 mmHg 57%
14:00 +26°C° 0 mm 3 m/s 762 mmHg 58%
15:00 +26°C° 0 mm 3 m/s 762 mmHg 59%
16:00 +26°C° 0 mm 3 m/s 762 mmHg 60%
17:00 +23°C° 0 mm 4 m/s 762 mmHg 67%
18:00 +21°C° 0 mm 4 m/s 762 mmHg 75%
19:00 +19°C° 0 mm 4 m/s 762 mmHg 82%
20:00 +18°C° 0 mm 4 m/s 762 mmHg 85%
21:00 +17°C° 0 mm 4 m/s 762 mmHg 89%
22:00 +15°C° 0 mm 4 m/s 763 mmHg 92%
23:00 +15°C° 0 mm 4 m/s 763 mmHg 93%

25 Juin, Vendredi

Heure Température Précipitation Vent Pression Humidité
00:00 +16°C° 0 mm 3 m/s 762 mmHg 94%
01:00 +15°C° 0 mm 2 m/s 762 mmHg 95%
02:00 +16°C° 0.1 mm 3 m/s 762 mmHg 94%
03:00 +16°C° 0.1 mm 3 m/s 762 mmHg 93%
04:00 +16°C° 0.1 mm 3 m/s 761 mmHg 93%
05:00 +15°C° 0.2 mm 4 m/s 761 mmHg 92%
06:00 +17°C° 0.2 mm 4 m/s 761 mmHg 91%
07:00 +16°C° 0.2 mm 5 m/s 761 mmHg 90%
08:00 +15°C° 0.1 mm 5 m/s 762 mmHg 90%
09:00 +15°C° 0.1 mm 6 m/s 762 mmHg 90%
10:00 +15°C° 0.1 mm 6 m/s 762 mmHg 90%
11:00 +15°C° 0.4 mm 6 m/s 762 mmHg 91%
12:00 +14°C° 0.4 mm 6 m/s 762 mmHg 92%
13:00 +14°C° 0.4 mm 6 m/s 762 mmHg 93%
14:00 +15°C° 0.2 mm 6 m/s 762 mmHg 88%
15:00 +16°C° 0.2 mm 5 m/s 762 mmHg 84%
16:00 +17°C° 0.2 mm 5 m/s 762 mmHg 80%
17:00 +16°C° 0 mm 5 m/s 762 mmHg 80%
18:00 +17°C° 0 mm 4 m/s 762 mmHg 80%
19:00 +17°C° 0 mm 4 m/s 762 mmHg 80%
20:00 +15°C° 0 mm 4 m/s 763 mmHg 84%
21:00 +14°C° 0 mm 4 m/s 763 mmHg 88%
22:00 +13°C° 0 mm 3 m/s 763 mmHg 93%
23:00 +12°C° 0 mm 3 m/s 763 mmHg 93%
Voir plus

Nous avons besoin de votre consentement

Meteoprog et ses fournisseurs de services peuvent stocker et accéder à des données personnelles telles que des cookies, des identifiants d'appareils ou d'autres technologies similaires sur votre appareil et traiter ces données pour personnaliser le contenu et les publicités, ainsi que pour fournir des fonctionnalités de médias sociaux et analyser le trafic.

  • Stocker et/ou accéder à des informations sur votre appareil

    Des cookies, des identifiants d'appareils ou d'autres informations peuvent être stockés ou accessibles sur votre appareil aux fins indiquées ci-dessus.

  • Annonces et contenus personnalisés, mesure des annonces et des contenus, connaissance de l'audience et développement de produits

    Les annonces et le contenu peuvent être personnalisés en fonction d'un profil. D'autres données peuvent être ajoutées pour mieux personnaliser les annonces et le contenu. Les performances des publicités et du contenu peuvent être mesurées. Il est possible d'obtenir des informations sur le public qui a vu les publicités et le contenu. Ces données peuvent être utilisées pour développer ou améliorer l'expérience de l'utilisateur, les systèmes et les logiciels.

En cliquant sur "J'accepte", vous autorisez l'utilisation de cookies, des identifiants d'appareils, des balises web ou d'autres technologies similaires. Vos paramètres peuvent être modifiés dans le navigateur de votre appareil.

Dans certains cas, des intérêts légitimes peuvent être invoqués plutôt qu'un consentement. Vous pouvez en savoir plus à ce sujet dans notre Politique de confidentialité et de cookies.